This is the latest recevied weather packets stored in our database for station/object KD4UFD. If no packets are shown the sender has not sent any weather packets the latest 10 day(s).
| Time | Temp. | Humidity | Pressure | Rain* | Wind** | Luminosity | Snow |
|---|---|---|---|---|---|---|---|
| 1778096207 | 20.56° C | 90% | 1012.5 hPa | 0 mm | - | 142 W/m² | - |
| 1778095904 | 20.56° C | 90% | 1012.1 hPa | 0 mm | - | 71 W/m² | - |
| 1778095600 | 20.56° C | 89% | 1012.3 hPa | 0 mm | - | 62 W/m² | - |
| 1778095297 | 21.11° C | 89% | 1012.4 hPa | 0 mm | - | 57 W/m² | - |
| 1778094994 | 21.11° C | 89% | 1011.9 hPa | 0 mm | - | 225 W/m² | - |
| 1778094690 | 20.56° C | 88% | 1011.6 hPa | 0 mm | - | 225 W/m² | - |
| 1778094387 | 21.11° C | 87% | 1011.6 hPa | 0 mm | - | 179 W/m² | - |
| 1778094084 | 21.11° C | 86% | 1011.5 hPa | 0 mm | - | 152 W/m² | - |
| 1778093781 | 21.11° C | 86% | 1012.2 hPa | 0 mm | - | 190 W/m² | - |
| 1778093477 | 21.11° C | 86% | 1012.3 hPa | 0 mm | - | 172 W/m² | - |
| 1778093175 | 21.11° C | 87% | 1012.3 hPa | 0 mm | - | 189 W/m² | - |
| 1778092872 | 21.11° C | 87% | 1012.5 hPa | 0 mm | - | 173 W/m² | - |
| 1778092569 | 21.11° C | 87% | 1012.3 hPa | 0 mm | - | 177 W/m² | - |
| 1778092264 | 21.11° C | 87% | 1012.3 hPa | 0 mm | - | 177 W/m² | - |
| 1778091962 | 21.11° C | 87% | 1012.2 hPa | 0 mm | - | 186 W/m² | - |
| 1778091659 | 21.11° C | 87% | 1012.6 hPa | 0 mm | - | 218 W/m² | - |
| 1778091357 | 21.11° C | 86% | 1012.5 hPa | 0 mm | - | 162 W/m² | - |
| 1778091054 | 21.67° C | 86% | 1012.6 hPa | 0 mm | - | 204 W/m² | - |
| 1778090750 | 21.67° C | 86% | 1012.3 hPa | 0 mm | - | 381 W/m² | - |
| 1778090447 | 21.67° C | 86% | 1012 hPa | 0 mm | - | 392 W/m² | - |
| 1778090143 | 21.67° C | 85% | 1012.1 hPa | 0 mm | - | 370 W/m² | - |
| 1778089839 | 21.11° C | 87% | 1012.1 hPa | 0 mm | - | 491 W/m² | - |
| 1778089539 | 21.11° C | 89% | 1012.2 hPa | 0 mm | - | 505 W/m² | - |
| 1778089234 | 21.11° C | 90% | 1012.4 hPa | 0 mm | - | 487 W/m² | - |
| 1778088932 | 20.56° C | 90% | 1012 hPa | 0 mm | - | 389 W/m² | - |
* Rain latest hour (hover to see other rain measurements)
** Current wind speed in m/s (hover to see current wind gust speed)